Погода в Ведрове

Россия / Костромская область     57°31′03″N   42°50′36″E
темп.,
°C
ветер,
м/с
пор.,
м/с
влажн.,
%
обл.,
%
осадки,
мм/ч
давл.,
гПа
погр.,
м
20 июня, вс
вс2000:00+18з39945 0.0 1021167
03:00+17з26943 0.0 1022116
06:00+20з24795 0.0 1022170
09:00+26зюз23552 0.0 1021639
12:00+29зюз34405 0.0 10211831
15:00+30зюз44385 0.0 10201856
18:00+28з35505 0.0 1019677
21:00+22зюз22772 0.0 102036
21 июня, пн
пн2100:00+19зюз24872 0.0 102070
03:00+18зюз23900 0.0 102054
06:00+21зюз25760 0.0 1021173
09:00+27з34540 0.0 1021747
12:00+30зюз34402 0.0 10201869
15:00+31зюз44382 0.0 10202216
18:00+29з354927 0.0 1019541
21:00+23зюз227698 0.0 102020
22 июня, вт
вт2200:00+21з2386100 0.0 102142
03:00+19зюз229411 0.0 102135
06:00+22з23755 0.0 1022159
09:00+27зюз235015 0.0 1022703
12:00+31зюз3337100 0.0 10211882
15:00+31зюз333783 0.0 10212215
18:00+29юз34472 0.0 1020459
21:00+23з11660 0.0 102011
23 июня, ср
ср2300:00+20ююз11740 0.0 102111
03:00+19зсз11855 0.0 102111
06:00+23з13722 0.0 1022124
09:00+28з12540 0.0 1022739
12:00+32з23410 0.0 10212041
15:00+33зсз23351 0.0 10202493
18:00+31з35468 0.0 1020655
21:00+24з26765 0.0 1020105
24 июня, чт
чт2400:00+22зсз2381100 0.0 102159
03:00+20з228655 0.0 102120
06:00+24з247472 0.0 1020146
09:00+29з3551100 0.0 1020656
12:00+33з3537100 0.0 10191978
15:00+33з4534100 0.0 10192407
18:00+31з364699 0.0 1018593
21:00+24зюз247174 0.0 101753